Regional Weather Roundup
Issued by NWS

Home | Current Version | Previous Version | Text Only | Print | Product List | Glossary Off
Versions: 1 2 3 4 5 6 7 8 9 10 11 12 13 14 15 16 17 18 19 20 21 22 23 24 25 26 27 28 29 30 31 32 33 34 35 36 37 38 39 40 41 42 43 44 45 46 47 48 49 50

000
ASUS43 KOAX 022102
RWRNE

WEATHER ROUNDUP FOR NEBRASKA
NATIONAL WEATHER SERVICE OMAHA NE
400 PM CDT TUE SEP 02 2014

NOTES: SATELLITE DATA IS BEING USED TO AUGMENT CLOUD COVER ABOVE
       12000 FEET.
       "FAIR" INDICATES FEW OR NO CLOUDS BELOW 12,000 FEET WITH NO
       SIGNIFICANT WEATHER AND/OR OBSTRUCTIONS TO VISIBILITY.

  * THESE STATIONS DO NOT REPORT WEATHER SUCH AS RAIN...SNOW OR FOG.

NEZ001>004-019>022-054>056-022200-
NEBRASKA PANHANDLE

CITY           SKY/WX    TMP DP  RH WIND       PRES   REMARKS
SCOTTSBLUFF    SUNNY     87  41  19 W9        29.92F
ALLIANCE       SUNNY     85  45  24 SW15G21   29.93F
CHADRON        SUNNY     84  40  21 W10G20    29.88F
KIMBALL        SUNNY     84  38  19 S6G18     29.98F
SIDNEY         SUNNY     83  55  38 SW20      29.99F
$$

NEZ057>060-069>072-079>082-022200-
SOUTHWEST NEBRASKA

CITY           SKY/WX    TMP DP  RH WIND       PRES   REMARKS
NORTH PLATTE   PTSUNNY   82  61  48 S15G23    29.95F
IMPERIAL       SUNNY     85  54  34 S17G23    29.97F
LEXINGTON      SUNNY     82  63  52 S12G18    29.97F
MCCOOK         SUNNY     87  54  32 S16G23    29.96F
OGALLALA       PTSUNNY   80  62  53 SW13      29.95F
$$

NEZ005>010-023>029-035>040-094-022200-
NORTH CENTRAL NEBRASKA

CITY           SKY/WX    TMP DP  RH WIND       PRES   REMARKS
VALENTINE      SUNNY     82  52  35 SW14      29.90F
AINSWORTH      SUNNY     79  52  39 S10G18    29.92F
BROKEN BOW     SUNNY     82  59  45 S14G26    29.96F
O`NEILL        SUNNY     80  53  39 SW10      29.95F
ORD            SUNNY     80  54  40 S8        29.94F
THEDFORD       SUNNY     82  60  48 SW16G26   29.94F
$$

NEZ041-046>049-061>064-073>077-083>087-022200-
SOUTH CENTRAL NEBRASKA

CITY           SKY/WX    TMP DP  RH WIND       PRES   REMARKS
GRAND ISLAND   SUNNY     80  58  46 S10       29.98F
AURORA         SUNNY     79  59  50 S6        29.99F
HASTINGS       SUNNY     80  57  45 S7        29.98F
HEBRON         SUNNY     81  52  35 S3        29.97F
HOLDREGE       SUNNY     82  53  36 S13G18    29.98F
KEARNEY *      SUNNY     81  61  50 SE12      29.99F
YORK           SUNNY     77 N/A N/A CALM      29.99F
$$

NEZ011>018-030>034-042>045-022200-
NORTHEAST NEBRASKA

CITY           SKY/WX    TMP DP  RH WIND       PRES   REMARKS
NORFOLK        SUNNY     77  56  48 SW10      29.97F
ALBION         SUNNY     77  53  42 SW8       29.98F
BLAIR          SUNNY     77  58  50 SW5       29.98F
FREMONT        SUNNY     79  56  45 SW6       29.99F
TEKAMAH        SUNNY     79  60  52 SW7       29.97F
WAYNE          MOSUNNY   75  59  56 SW9       29.97F
$$

NEZ050>053-065>068-078-088>093-022200-
SOUTHEAST NEBRASKA

CITY           SKY/WX    TMP DP  RH WIND       PRES   REMARKS
LINCOLN        SUNNY     82  53  36 CALM      29.98F
OMAHA EPPLEY   MOSUNNY   80  53  39 W5        29.97F
BEATRICE       SUNNY     83  57  40 S3        29.97F
FALLS CITY     SUNNY     84  60  44 S3        29.96F
NEBRASKA CITY  SUNNY     81  56  43 SW7       29.98F
PLATTSMOUTH    SUNNY     80  55  40 W8        29.98F
$$

NEZ044-045-051>053-067-022200-
OMAHA AREA

CITY           SKY/WX    TMP DP  RH WIND       PRES   REMARKS
OMAHA EPPLEY   MOSUNNY   80  53  39 W5        29.97F
BLAIR          SUNNY     77  58  50 SW5       29.98F
FREMONT        SUNNY     79  56  45 SW6       29.99F
MILLARD        SUNNY     79  58  48 W8        29.97F
OFFUTT AFB     SUNNY     80  57  44 W9        29.97F
PLATTSMOUTH    SUNNY     80  55  40 W8        29.98F
WAHOO          FAIR      80  53  40 SW6       29.98F
$$



USA.gov is the U.S. government's official web portal to all federal, state and local government web resources and services.